Location: Bergnershof
(48.9468°N, 10.9431°E)
Time: 15:11:19
(UTC+00:00)

Cosmos 2333 Rocket - Pass Details

Date: 24 June 2021
Orbit: 841 x 861 km, 70.8° (Epoch: 28 July)

Event Time Altitude Azimuth Distance (km) Brightness Sun altitude
Rises 21:12:19 0° 234° (SW) 3,424 5.3 -12.3°
Reaches altitude 10° 21:14:58 10° 243° (WSW) 2,488 4.7 -12.6°
Maximum altitude 21:20:14 37° 310° (NW) 1,309 3.8 -13.0°
Drops below altitude 10° 21:25:31 10° 17° (NNE) 2,489 5.3 -13.4°
Sets 21:28:10 0° 26° (NNE) 3,425 5.9 -13.6°
